Powrót do katalogu

COSMOS 970 DEB

AktywnyLEO
NORAD 64985·DEBRIS·🇷🇺 Russia

Wystrzelony Dec 21, 1977 z Baikonur Cosmodrome

Loading…

Następne Przeloty (najbliższe 24 godziny)

TLE

NieaktualneSource: Space-Track

Epoka: Sep 2, 2026, 08:05 UTC

1 64985U 77121CW  26245.33696906  .00000025  00000-0  14041-3 0  9991
2 64985  65.8517  92.9097 0101244 231.2022 304.6471 13.55881899127121

Śledź COSMOS 970 DEB w czasie rzeczywistym z AllMySat

Download on the App Store